Time,TemperatureF,DewpointF,PressureIn,WindDirection,WindDirectionDegrees,WindSpeedMPH,WindSpeedGustMPH,Humidity,HourlyPrecipIn,Conditions,Clouds,dailyrainin,SoftwareType,DateUTC
2013-04-16 00:03:00,65.0,60.0,30.20,ENE,74,2.0,5.0,83,0.00,,,0.01,,2013-04-16 04:03:00,
2013-04-16 00:12:00,65.0,60.0,30.20,ENE,74,2.0,5.0,83,0.00,,,0.01,,2013-04-16 04:12:00,
2013-04-16 00:23:00,64.0,59.0,30.19,SE,146,1.0,5.0,84,0.00,,,0.01,,2013-04-16 04:23:00,
2013-04-16 00:33:00,64.0,59.0,30.20,East,90,2.0,5.0,85,0.00,,,0.01,,2013-04-16 04:33:00,
2013-04-16 00:42:00,64.0,59.0,30.20,East,90,2.0,5.0,85,0.00,,,0.01,,2013-04-16 04:42:00,
2013-04-16 00:53:00,64.0,60.0,30.20,East,92,2.0,6.0,86,0.00,,,0.01,,2013-04-16 04:53:00,
2013-04-16 01:02:00,63.0,59.0,30.21,East,100,1.0,5.0,87,0.00,,,0.01,,2013-04-16 05:02:00,
2013-04-16 01:12:00,63.0,59.0,30.21,East,100,1.0,5.0,87,0.00,,,0.01,,2013-04-16 05:12:00,
2013-04-16 01:22:00,63.0,59.0,30.21,ESE,115,1.0,2.0,88,0.00,,,0.01,,2013-04-16 05:22:00,
2013-04-16 01:32:00,62.0,59.0,30.21,SE,136,0.0,2.0,89,0.00,,,0.01,,2013-04-16 05:32:00,
2013-04-16 01:42:00,62.0,59.0,30.21,SE,136,0.0,2.0,89,0.00,,,0.01,,2013-04-16 05:42:00,
2013-04-16 01:52:00,62.0,59.0,30.21,East,91,0.0,1.0,90,0.00,,,0.01,,2013-04-16 05:52:00,
2013-04-16 02:02:00,61.0,58.0,30.22,East,91,0.0,1.0,91,0.00,,,0.01,,2013-04-16 06:02:00,
2013-04-16 02:12:00,61.0,58.0,30.22,East,91,0.0,1.0,91,0.00,,,0.01,,2013-04-16 06:12:00,
2013-04-16 02:22:00,60.0,58.0,30.21,East,79,0.0,3.0,93,0.00,,,0.01,,2013-04-16 06:22:00,
2013-04-16 02:32:00,60.0,58.0,30.22,ENE,77,0.0,1.0,94,0.00,,,0.01,,2013-04-16 06:32:00,
2013-04-16 02:42:00,60.0,58.0,30.22,ENE,77,0.0,1.0,94,0.00,,,0.01,,2013-04-16 06:42:00,
2013-04-16 02:52:00,60.0,58.0,30.22,ESE,120,0.0,1.0,94,0.00,,,0.01,,2013-04-16 06:52:00,
2013-04-16 03:02:00,60.0,58.0,30.22,East,95,0.0,1.0,94,0.00,,,0.01,,2013-04-16 07:02:00,
2013-04-16 03:12:00,60.0,58.0,30.22,East,95,0.0,1.0,94,0.00,,,0.01,,2013-04-16 07:12:00,
2013-04-16 03:22:00,59.0,58.0,30.22,SE,125,0.0,1.0,95,0.00,,,0.01,,2013-04-16 07:22:00,
2013-04-16 03:32:00,59.0,58.0,30.21,ESE,121,1.0,3.0,95,0.00,,,0.01,,2013-04-16 07:32:00,
2013-04-16 03:42:00,59.0,58.0,30.21,ESE,121,1.0,3.0,95,0.00,,,0.01,,2013-04-16 07:42:00,
2013-04-16 03:53:00,59.0,58.0,30.21,ESE,111,0.0,3.0,95,0.00,,,0.01,,2013-04-16 07:53:00,
2013-04-16 04:02:00,59.0,58.0,30.21,ESE,121,1.0,2.0,95,0.00,,,0.01,,2013-04-16 08:02:00,
2013-04-16 04:12:00,59.0,58.0,30.21,ESE,121,1.0,2.0,95,0.00,,,0.01,,2013-04-16 08:12:00,
2013-04-16 04:22:00,59.0,58.0,30.21,ESE,118,1.0,3.0,96,0.00,,,0.00,,2013-04-16 08:22:00,
2013-04-16 04:32:00,59.0,58.0,30.21,ESE,105,1.0,3.0,96,0.00,,,0.00,,2013-04-16 08:32:00,
2013-04-16 04:42:00,59.0,58.0,30.21,ESE,105,1.0,3.0,96,0.00,,,0.00,,2013-04-16 08:42:00,
2013-04-16 04:52:00,59.0,58.0,30.22,ESE,105,1.0,3.0,96,0.00,,,0.00,,2013-04-16 08:52:00,
2013-04-16 05:02:00,59.0,58.0,30.22,SE,129,0.0,2.0,96,0.00,,,0.00,,2013-04-16 09:02:00,
2013-04-16 05:12:00,59.0,58.0,30.22,SE,129,0.0,2.0,96,0.00,,,0.00,,2013-04-16 09:12:00,
2013-04-16 05:22:00,59.0,58.0,30.21,ESE,114,1.0,3.0,96,0.00,,,0.00,,2013-04-16 09:22:00,
2013-04-16 05:33:00,59.0,58.0,30.22,East,97,0.0,4.0,96,0.00,,,0.00,,2013-04-16 09:33:00,
2013-04-16 05:43:00,59.0,58.0,30.22,East,97,0.0,4.0,96,0.00,,,0.00,,2013-04-16 09:43:00,
2013-04-16 05:53:00,59.0,58.0,30.22,ESE,107,1.0,2.0,96,0.00,,,0.00,,2013-04-16 09:53:00,
2013-04-16 06:03:00,59.0,58.0,30.22,East,87,1.0,3.0,96,0.00,,,0.00,,2013-04-16 10:03:00,
2013-04-16 06:13:00,59.0,58.0,30.22,East,87,1.0,3.0,96,0.00,,,0.00,,2013-04-16 10:13:00,
2013-04-16 06:23:00,59.0,58.0,30.22,SE,128,2.0,5.0,97,0.00,,,0.00,,2013-04-16 10:23:00,
2013-04-16 06:33:00,59.0,58.0,30.23,SSE,156,3.0,5.0,97,0.00,,,0.00,,2013-04-16 10:33:00,
2013-04-16 06:42:00,59.0,58.0,30.23,SSE,156,3.0,5.0,97,0.00,,,0.00,,2013-04-16 10:42:00,
2013-04-16 06:53:00,59.0,58.0,30.23,SE,146,1.0,4.0,97,0.00,,,0.00,,2013-04-16 10:53:00,
2013-04-16 07:02:00,59.0,58.0,30.24,SE,138,0.0,2.0,97,0.00,,,0.00,,2013-04-16 11:02:00,
2013-04-16 07:12:00,59.0,58.0,30.24,SE,138,0.0,2.0,97,0.00,,,0.00,,2013-04-16 11:12:00,
2013-04-16 07:22:00,59.0,58.0,30.24,ESE,115,0.0,0.0,97,0.00,,,0.00,,2013-04-16 11:22:00,
2013-04-16 07:32:00,59.0,58.0,30.25,SE,136,2.0,5.0,98,0.00,,,0.00,,2013-04-16 11:32:00,
2013-04-16 07:42:00,59.0,58.0,30.25,SE,136,2.0,5.0,98,0.00,,,0.00,,2013-04-16 11:42:00,
2013-04-16 07:53:00,59.0,58.0,30.25,SE,141,4.0,5.0,98,0.00,,,0.00,,2013-04-16 11:53:00,
2013-04-16 08:02:00,59.0,58.0,30.26,ESE,110,2.0,5.0,98,0.00,,,0.00,,2013-04-16 12:02:00,
2013-04-16 08:12:00,59.0,58.0,30.26,ESE,110,2.0,5.0,98,0.00,,,0.00,,2013-04-16 12:12:00,
2013-04-16 08:22:00,59.0,58.0,30.27,SE,132,3.0,6.0,98,0.00,,,0.00,,2013-04-16 12:22:00,
2013-04-16 08:32:00,60.0,59.0,30.27,ENE,60,1.0,5.0,98,0.00,,,0.00,,2013-04-16 12:32:00,
2013-04-16 08:42:00,60.0,59.0,30.27,ENE,60,1.0,5.0,98,0.00,,,0.00,,2013-04-16 12:42:00,
2013-04-16 08:52:00,60.0,59.0,30.27,SE,144,1.0,3.0,98,0.00,,,0.00,,2013-04-16 12:52:00,
2013-04-16 09:02:00,60.0,59.0,30.27,NNW,346,1.0,2.0,98,0.00,,,0.00,,2013-04-16 13:02:00,
2013-04-16 09:12:00,60.0,59.0,30.27,NNW,346,1.0,2.0,98,0.00,,,0.00,,2013-04-16 13:12:00,
2013-04-16 09:22:00,60.0,59.0,30.28,NNE,30,0.0,1.0,98,0.00,,,0.00,,2013-04-16 13:22:00,
2013-04-16 09:32:00,60.0,59.0,30.28,NNE,27,0.0,0.0,98,0.00,,,0.00,,2013-04-16 13:32:00,
2013-04-16 09:42:00,60.0,59.0,30.28,NNE,27,0.0,0.0,98,0.00,,,0.00,,2013-04-16 13:42:00,
2013-04-16 09:52:00,61.0,60.0,30.28,NNE,15,2.0,3.0,97,0.00,,,0.00,,2013-04-16 13:52:00,
2013-04-16 10:02:00,62.0,61.0,30.29,NNE,33,0.0,3.0,96,0.00,,,0.00,,2013-04-16 14:02:00,
2013-04-16 10:12:00,62.0,61.0,30.29,NNE,33,0.0,3.0,96,0.00,,,0.00,,2013-04-16 14:12:00,
2013-04-16 10:22:00,63.0,61.0,30.29,NE,39,1.0,2.0,92,0.00,,,0.00,,2013-04-16 14:22:00,
2013-04-16 10:32:00,64.0,61.0,30.29,NE,56,1.0,3.0,90,0.00,,,0.00,,2013-04-16 14:32:00,
2013-04-16 10:42:00,64.0,61.0,30.29,NE,56,1.0,3.0,90,0.00,,,0.00,,2013-04-16 14:42:00,
2013-04-16 10:52:00,65.0,61.0,30.29,ESE,120,1.0,3.0,86,0.00,,,0.00,,2013-04-16 14:52:00,
2013-04-16 11:02:00,67.0,62.0,30.29,ENE,61,1.0,4.0,83,0.00,,,0.00,,2013-04-16 15:02:00,
2013-04-16 11:12:00,67.0,62.0,30.29,ENE,61,1.0,4.0,83,0.00,,,0.00,,2013-04-16 15:12:00,
2013-04-16 11:22:00,68.0,62.0,30.30,NE,41,2.0,5.0,81,0.00,,,0.00,,2013-04-16 15:22:00,
2013-04-16 11:33:00,69.0,62.0,30.29,North,354,4.0,5.0,78,0.00,,,0.00,,2013-04-16 15:33:00,
2013-04-16 11:43:00,69.0,62.0,30.29,North,354,4.0,5.0,78,0.00,,,0.00,,2013-04-16 15:43:00,
2013-04-16 11:53:00,70.0,62.0,30.30,East,86,3.0,5.0,77,0.00,,,0.00,,2013-04-16 15:53:00,
2013-04-16 12:03:00,70.0,62.0,30.29,NNE,13,3.0,7.0,76,0.00,,,0.00,,2013-04-16 16:03:00,
2013-04-16 12:13:00,70.0,62.0,30.29,NNE,13,3.0,7.0,76,0.00,,,0.00,,2013-04-16 16:13:00,
2013-04-16 12:23:00,71.0,63.0,30.29,East,98,3.0,5.0,76,0.00,,,0.00,,2013-04-16 16:23:00,
2013-04-16 12:32:00,71.0,62.0,30.29,NE,39,4.0,6.0,74,0.00,,,0.00,,2013-04-16 16:32:00,
2013-04-16 12:42:00,71.0,62.0,30.29,NE,39,4.0,6.0,74,0.00,,,0.00,,2013-04-16 16:42:00,
2013-04-16 12:53:00,72.0,64.0,30.29,ESE,113,2.0,4.0,75,0.00,,,0.00,,2013-04-16 16:53:00,
2013-04-16 13:02:00,72.0,62.0,30.29,NE,50,3.0,8.0,72,0.00,,,0.00,,2013-04-16 17:02:00,
2013-04-16 13:12:00,72.0,62.0,30.29,NE,50,3.0,8.0,72,0.00,,,0.00,,2013-04-16 17:12:00,
2013-04-16 13:22:00,73.0,63.0,30.29,SSE,162,2.0,8.0,70,0.00,,,0.00,,2013-04-16 17:22:00,
2013-04-16 13:32:00,75.0,63.0,30.28,ENE,66,3.0,7.0,67,0.00,,,0.00,,2013-04-16 17:32:00,
2013-04-16 13:43:00,75.0,63.0,30.28,ENE,66,3.0,7.0,67,0.00,,,0.00,,2013-04-16 17:43:00,
2013-04-16 13:53:00,75.0,63.0,30.27,ESE,113,2.0,7.0,67,0.00,,,0.00,,2013-04-16 17:53:00,
2013-04-16 14:02:00,75.0,62.0,30.27,East,91,4.0,8.0,65,0.00,,,0.00,,2013-04-16 18:02:00,
2013-04-16 14:12:00,75.0,62.0,30.27,East,91,4.0,8.0,65,0.00,,,0.00,,2013-04-16 18:12:00,
2013-04-16 14:22:00,75.0,62.0,30.27,East,91,4.0,8.0,65,0.00,,,0.00,,2013-04-16 18:22:00,
2013-04-16 14:32:00,74.0,61.0,30.27,SSW,210,3.0,5.0,64,0.00,,,0.00,,2013-04-16 18:32:00,
2013-04-16 14:42:00,74.0,61.0,30.27,SSW,210,3.0,5.0,64,0.00,,,0.00,,2013-04-16 18:42:00,
2013-04-16 14:52:00,74.0,61.0,30.26,SW,222,1.0,5.0,64,0.00,,,0.00,,2013-04-16 18:52:00,
2013-04-16 15:02:00,74.0,61.0,30.26,ESE,113,3.0,6.0,64,0.00,,,0.00,,2013-04-16 19:02:00,
2013-04-16 15:12:00,74.0,61.0,30.26,ESE,113,3.0,6.0,64,0.00,,,0.00,,2013-04-16 19:12:00,
2013-04-16 15:22:00,74.0,61.0,30.25,SSE,151,2.0,6.0,63,0.00,,,0.00,,2013-04-16 19:22:00,
2013-04-16 15:32:00,75.0,62.0,30.25,NE,44,1.0,2.0,63,0.00,,,0.00,,2013-04-16 19:32:00,
2013-04-16 15:42:00,75.0,62.0,30.25,NE,44,1.0,2.0,63,0.00,,,0.00,,2013-04-16 19:42:00,
2013-04-16 15:52:00,76.0,62.0,30.24,East,86,2.0,6.0,63,0.00,,,0.00,,2013-04-16 19:52:00,
2013-04-16 16:02:00,75.0,62.0,30.23,ESE,110,1.0,3.0,64,0.00,,,0.00,,2013-04-16 20:02:00,
2013-04-16 16:12:00,75.0,62.0,30.23,ESE,110,1.0,3.0,64,0.00,,,0.00,,2013-04-16 20:12:00,
2013-04-16 16:22:00,75.0,62.0,30.22,SSW,195,1.0,5.0,63,0.00,,,0.00,,2013-04-16 20:22:00,
2013-04-16 16:32:00,77.0,63.0,30.22,NNE,19,1.0,6.0,61,0.00,,,0.00,,2013-04-16 20:32:00,
2013-04-16 16:42:00,77.0,63.0,30.22,NNE,19,1.0,6.0,61,0.00,,,0.00,,2013-04-16 20:42:00,
2013-04-16 16:52:00,77.0,60.0,30.21,ESE,115,5.0,9.0,56,0.00,,,0.00,,2013-04-16 20:52:00,
2013-04-16 17:02:00,78.0,61.0,30.21,SSW,195,4.0,8.0,55,0.00,,,0.00,,2013-04-16 21:02:00,
2013-04-16 17:12:00,78.0,61.0,30.21,SSW,195,4.0,8.0,55,0.00,,,0.00,,2013-04-16 21:12:00,
2013-04-16 17:22:00,77.0,61.0,30.21,SSE,151,3.0,6.0,57,0.00,,,0.00,,2013-04-16 21:22:00,
2013-04-16 17:32:00,78.0,60.0,30.21,SSE,162,3.0,8.0,54,0.00,,,0.00,,2013-04-16 21:32:00,
2013-04-16 17:43:00,78.0,60.0,30.21,SSE,162,3.0,8.0,54,0.00,,,0.00,,2013-04-16 21:43:00,
2013-04-16 17:53:00,78.0,59.0,30.21,SSE,150,6.0,9.0,52,0.00,,,0.00,,2013-04-16 21:53:00,
2013-04-16 18:03:00,77.0,59.0,30.21,SE,145,6.0,7.0,54,0.00,,,0.00,,2013-04-16 22:03:00,
2013-04-16 18:13:00,77.0,59.0,30.21,SE,145,6.0,7.0,54,0.00,,,0.00,,2013-04-16 22:13:00,
2013-04-16 18:22:00,78.0,59.0,30.21,South,188,4.0,6.0,52,0.00,,,0.00,,2013-04-16 22:22:00,
2013-04-16 18:33:00,77.0,58.0,30.21,SSE,147,5.0,8.0,52,0.00,,,0.00,,2013-04-16 22:33:00,
2013-04-16 18:43:00,77.0,58.0,30.21,SSE,147,5.0,8.0,52,0.00,,,0.00,,2013-04-16 22:43:00,
2013-04-16 18:52:00,77.0,60.0,30.21,ESE,110,6.0,8.0,55,0.00,,,0.00,,2013-04-16 22:52:00,
2013-04-16 19:02:00,76.0,59.0,30.21,SSW,204,3.0,7.0,56,0.00,,,0.00,,2013-04-16 23:02:00,
2013-04-16 19:12:00,76.0,59.0,30.21,SSW,204,3.0,7.0,56,0.00,,,0.00,,2013-04-16 23:12:00,
2013-04-16 19:22:00,76.0,59.0,30.20,SE,146,4.0,7.0,56,0.00,,,0.00,,2013-04-16 23:22:00,
2013-04-16 19:32:00,75.0,59.0,30.20,SSW,197,2.0,4.0,57,0.00,,,0.00,,2013-04-16 23:32:00,
2013-04-16 19:43:00,75.0,59.0,30.20,SSW,197,2.0,4.0,57,0.00,,,0.00,,2013-04-16 23:43:00,
2013-04-16 19:52:00,73.0,58.0,30.20,SSW,195,1.0,2.0,60,0.00,,,0.00,,2013-04-16 23:52:00,
2013-04-16 20:02:00,71.0,59.0,30.21,SSW,201,0.0,2.0,65,0.00,,,0.00,,2013-04-17 00:02:00,
2013-04-16 20:12:00,71.0,59.0,30.21,SSW,201,0.0,2.0,65,0.00,,,0.00,,2013-04-17 00:12:00,
2013-04-16 20:22:00,69.0,59.0,30.21,SSW,201,0.0,0.0,70,0.00,,,0.00,,2013-04-17 00:22:00,
2013-04-16 20:32:00,68.0,59.0,30.21,SSW,201,0.0,0.0,73,0.00,,,0.00,,2013-04-17 00:32:00,
2013-04-16 20:42:00,68.0,59.0,30.21,SSW,201,0.0,0.0,73,0.00,,,0.00,,2013-04-17 00:42:00,
2013-04-16 20:52:00,66.0,59.0,30.21,SSW,201,0.0,0.0,77,0.00,,,0.00,,2013-04-17 00:52:00,
2013-04-16 21:02:00,65.0,59.0,30.21,SSW,201,0.0,0.0,80,0.00,,,0.00,,2013-04-17 01:02:00,
2013-04-16 21:12:00,65.0,59.0,30.21,SSW,201,0.0,0.0,80,0.00,,,0.00,,2013-04-17 01:12:00,
2013-04-16 21:22:00,64.0,58.0,30.21,SSW,201,0.0,0.0,81,0.00,,,0.00,,2013-04-17 01:22:00,
2013-04-16 21:32:00,63.0,58.0,30.22,SSW,201,0.0,0.0,84,0.00,,,0.00,,2013-04-17 01:32:00,
2013-04-16 21:42:00,63.0,58.0,30.22,SSW,201,0.0,0.0,84,0.00,,,0.00,,2013-04-17 01:42:00,
2013-04-16 21:52:00,62.0,58.0,30.22,SSW,202,0.0,0.0,86,0.00,,,0.00,,2013-04-17 01:52:00,
2013-04-16 22:02:00,62.0,58.0,30.23,SE,146,0.0,1.0,86,0.00,,,0.00,,2013-04-17 02:02:00,
2013-04-16 22:12:00,62.0,58.0,30.23,SE,146,0.0,1.0,86,0.00,,,0.00,,2013-04-17 02:12:00,
2013-04-16 22:22:00,62.0,59.0,30.23,ESE,115,0.0,0.0,89,0.00,,,0.00,,2013-04-17 02:22:00,
2013-04-16 22:32:00,62.0,59.0,30.23,ESE,122,0.0,1.0,89,0.00,,,0.00,,2013-04-17 02:32:00,
2013-04-16 22:42:00,62.0,59.0,30.23,ESE,122,0.0,1.0,89,0.00,,,0.00,,2013-04-17 02:42:00,
2013-04-16 22:52:00,64.0,58.0,30.23,South,170,1.0,2.0,82,0.00,,,0.00,,2013-04-17 02:52:00,
2013-04-16 23:02:00,65.0,59.0,30.23,South,176,2.0,5.0,80,0.00,,,0.00,,2013-04-17 03:02:00,
2013-04-16 23:12:00,65.0,59.0,30.23,South,176,2.0,5.0,80,0.00,,,0.00,,2013-04-17 03:12:00,
2013-04-16 23:22:00,66.0,60.0,30.23,SSW,198,4.0,7.0,81,0.00,,,0.00,,2013-04-17 03:22:00,
2013-04-16 23:33:00,66.0,61.0,30.23,South,184,3.0,9.0,83,0.00,,,0.00,,2013-04-17 03:33:00,
2013-04-16 23:42:00,66.0,61.0,30.23,South,184,3.0,9.0,83,0.00,,,0.00,,2013-04-17 03:42:00,
2013-04-16 23:53:00,65.0,60.0,30.24,SSW,193,3.0,5.0,85,0.00,,,0.00,,2013-04-17 03:53:00,